period_start,C,m1,H,J0,J1,J2,J3,J4,J5,JA,JB,JC,JD,JJ,JK,JN,#
2014-12-24 00:00:52,0.16,2.09,0.00,23.10,28.01,31.07,4.82,26.45,1010.96,2028.04,2727.32,2734.73,2950.52,350.28,345.78,23.44,0000 0000 0000 0000 000000
2014-12-24 00:05:53,0.16,2.10,0.00,23.22,28.02,31.06,4.75,26.48,1010.81,2028.03,2725.77,2733.59,2949.26,349.83,345.28,23.47,0000 0000 0000 0000 000000
2014-12-24 00:10:54,0.14,2.10,0.00,23.29,28.01,31.07,4.74,26.52,1010.76,2028.03,2724.38,2732.52,2948.03,349.55,344.93,23.50,0000 0000 0000 0000 000000
2014-12-24 00:15:56,0.14,2.11,0.00,23.35,28.01,31.07,4.82,26.53,1010.76,2028.02,2722.92,2731.50,2946.86,350.28,345.57,23.53,0000 0000 0000 0000 000000
2014-12-24 00:20:57,0.16,2.11,0.00,23.41,28.02,31.06,4.82,26.63,1010.77,2028.02,2721.49,2730.41,2945.66,349.71,345.05,23.56,0000 0000 0000 0000 000000
2014-12-24 00:25:59,0.14,2.12,0.00,23.32,28.02,31.06,4.75,26.55,1010.74,2028.01,2719.98,2729.37,2944.53,349.64,344.76,23.59,0000 0000 0000 0000 000000
2014-12-24 00:31:00,0.15,2.12,0.00,23.19,28.02,31.06,4.75,26.49,1010.74,2028.02,2718.50,2728.29,2943.38,349.50,345.00,23.62,0000 0000 0000 0000 000000
2014-12-24 00:36:01,0.14,2.13,0.00,23.15,28.02,31.08,4.72,26.66,1010.76,2028.01,2717.00,2727.26,2942.18,349.74,345.29,23.65,0000 0000 0000 0000 000000
2014-12-24 00:41:02,0.16,2.13,0.00,23.27,28.02,31.06,4.80,26.74,1010.71,2028.01,2715.50,2726.10,2940.89,350.05,345.20,23.67,0000 0000 0000 0000 000000
2014-12-24 00:46:04,0.15,2.13,0.00,23.32,28.02,31.09,4.77,26.57,1010.73,2028.00,2714.03,2725.02,2939.73,350.14,345.33,23.70,0000 0000 0000 0000 000000
2014-12-24 00:51:05,0.15,2.14,0.00,23.34,28.02,31.08,4.72,26.64,1010.76,2028.01,2712.58,2723.97,2938.56,349.49,344.94,23.73,0000 0000 0000 0000 000000
2014-12-24 00:56:06,0.14,2.14,0.00,23.38,28.02,31.09,4.81,26.59,1010.76,2028.00,2711.24,2722.93,2937.44,350.30,345.42,23.76,0000 0000 0000 0000 000000
2014-12-24 01:01:07,0.14,2.15,0.00,23.33,28.02,31.07,4.81,26.48,1010.76,2028.02,2709.83,2721.94,2936.31,350.71,346.03,23.79,0000 0000 0000 0000 000000
2014-12-24 01:06:08,0.15,2.15,0.00,23.25,28.02,31.06,4.83,26.61,1010.76,2028.01,2708.43,2720.89,2935.19,350.64,345.95,23.82,0000 0000 0000 0000 000000
2014-12-24 01:11:09,0.17,2.16,0.00,23.14,28.02,31.08,4.70,26.48,1010.76,2028.00,2706.87,2719.76,2933.82,349.51,344.90,23.85,0000 0000 0000 0000 000000
2014-12-24 01:16:11,0.16,2.16,0.00,23.22,28.02,31.09,4.78,26.60,1010.76,2028.00,2705.41,2718.66,2932.66,350.24,345.58,23.88,0000 0000 0000 0000 000000
2014-12-24 01:21:12,0.15,2.17,0.00,23.26,28.02,31.08,4.82,26.56,1010.70,2028.00,2703.86,2717.62,2931.52,350.33,345.47,23.91,0000 0000 0000 0000 000000
2014-12-24 01:26:14,0.15,2.17,0.00,23.31,28.02,31.11,4.65,26.48,1010.47,2028.00,2702.34,2716.49,2930.31,348.83,344.06,23.94,0000 0000 0000 0000 000000
2014-12-24 01:31:15,0.16,2.18,0.00,23.34,28.02,31.12,4.82,26.52,1010.29,2028.02,2700.82,2715.40,2929.02,349.79,344.97,23.97,0000 0000 0000 0000 000000
2014-12-24 01:36:16,0.16,2.18,0.00,23.39,28.02,31.09,4.71,26.43,1010.28,2028.01,2699.16,2714.21,2927.81,349.89,344.77,24.00,0000 0000 0000 0000 000000
2014-12-24 01:41:17,0.18,2.19,0.00,23.42,28.02,31.10,4.85,26.44,1010.30,2028.00,2697.56,2712.98,2926.45,350.20,345.13,24.03,0000 0000 0000 0000 000000
2014-12-24 01:46:18,0.14,2.19,0.00,23.42,28.02,31.10,4.87,26.32,1010.29,2028.00,2696.06,2711.90,2925.29,350.41,345.43,24.06,0000 0000 0000 0000 000000
2014-12-24 01:51:20,0.16,2.20,0.00,23.26,28.02,31.10,4.74,26.43,1010.32,2028.00,2694.48,2710.80,2924.08,350.43,345.64,24.08,0000 0000 0000 0000 000000
2014-12-24 01:56:21,0.17,2.20,0.00,23.11,28.02,31.11,4.74,26.50,1010.27,2028.00,2692.95,2709.65,2922.79,349.87,345.35,24.11,0000 0000 0000 0000 000000
2014-12-24 02:01:22,0.17,2.20,0.00,23.22,28.02,31.11,4.92,26.54,1010.27,2028.00,2691.39,2708.52,2921.48,350.03,345.41,24.14,0000 0000 0000 0000 000000
2014-12-24 02:06:23,0.16,2.21,0.00,23.26,28.02,31.12,4.74,26.42,1010.27,2028.01,2689.77,2707.32,2920.12,350.01,345.22,24.17,0000 0000 0000 0000 000000
2014-12-24 02:11:25,0.18,2.22,0.00,23.29,28.02,31.11,4.78,26.50,1010.28,2028.01,2688.10,2706.05,2918.71,350.20,345.22,24.20,0000 0000 0000 0000 000000
2014-12-24 02:16:26,0.18,2.22,0.00,23.33,28.02,31.11,4.63,26.49,1010.28,2028.00,2686.37,2704.76,2917.27,349.50,344.68,24.23,0000 0000 0000 0000 000000
2014-12-24 02:21:27,0.19,2.23,0.00,23.32,28.02,31.11,4.79,26.34,1010.29,2028.01,2684.70,2703.49,2915.82,350.46,345.49,24.26,0000 0000 0000 0000 000000
2014-12-24 02:26:29,0.18,2.23,0.00,23.34,28.02,31.11,4.78,26.45,1010.35,2028.00,2682.88,2702.19,2914.45,350.04,345.19,24.29,0000 0000 0000 0000 000000
2014-12-24 02:31:30,0.18,2.24,0.00,23.36,28.02,31.10,4.73,26.51,1010.28,2028.01,2681.16,2700.92,2913.05,349.64,344.81,24.32,0000 0000 0000 0000 000000
2014-12-24 02:36:31,0.21,2.24,0.00,23.37,28.02,31.13,4.71,26.66,1010.27,2028.01,2679.26,2699.54,2911.52,349.96,344.91,24.35,0000 0000 0000 0000 000000
2014-12-24 02:41:32,0.20,2.25,0.00,23.35,28.02,31.12,4.83,26.77,1010.26,2028.00,2677.35,2698.02,2909.72,349.98,344.82,24.38,0000 0000 0000 0000 000000
2014-12-24 02:46:34,0.20,2.25,0.00,23.36,28.02,31.14,4.69,26.58,1009.95,2028.00,2675.61,2696.73,2908.37,349.86,344.87,24.41,0000 0000 0000 0000 000000
2014-12-24 02:51:35,0.19,2.26,0.00,23.34,28.02,31.14,4.74,26.71,1009.79,2028.00,2673.78,2695.48,2906.89,350.12,345.07,24.44,0000 0000 0000 0000 000000
2014-12-24 02:56:37,0.19,2.27,0.00,23.29,28.02,31.15,4.72,26.80,1009.78,2028.00,2671.89,2694.04,2905.42,349.91,345.12,24.47,0000 0000 0000 0000 000000
2014-12-24 03:01:38,0.23,2.27,0.00,23.28,28.02,31.14,4.82,26.77,1009.79,2028.00,2669.78,2692.54,2903.75,349.70,344.67,24.50,0000 0000 0000 0000 000000
2014-12-24 03:06:39,0.21,2.28,0.00,23.27,28.02,31.16,4.76,26.87,1009.79,2028.00,2667.70,2691.04,2902.12,350.31,345.34,24.52,0000 0000 0000 0000 000000
2014-12-24 03:11:40,0.22,2.29,0.00,23.23,28.02,31.14,4.72,27.01,1009.78,2028.00,2665.50,2689.53,2900.52,349.64,344.72,24.55,0000 0000 0000 0000 000000
2014-12-24 03:16:42,0.21,2.29,0.00,23.20,28.02,31.12,4.75,26.77,1009.78,2028.00,2663.54,2688.00,2898.81,350.17,345.22,24.58,0000 0000 0000 0000 000000
2014-12-24 03:21:43,0.21,2.30,0.00,23.19,28.02,31.13,4.75,26.66,1009.78,2028.00,2661.49,2686.58,2897.14,350.14,345.26,24.61,0000 0000 0000 0000 000000
2014-12-24 03:26:44,0.20,2.30,0.00,23.17,28.00,31.13,4.71,26.64,1009.78,2028.00,2659.58,2685.19,2895.63,349.38,344.54,24.64,0000 0000 0000 0000 000000
2014-12-24 03:31:45,0.22,2.31,0.00,23.17,28.00,31.10,4.71,26.85,1009.51,2028.02,2657.59,2683.72,2893.98,349.63,344.65,24.67,0000 0000 0000 0000 000000
2014-12-24 03:36:47,0.20,2.32,0.00,23.13,28.00,31.09,4.79,26.90,1009.28,2028.01,2655.58,2682.28,2892.38,350.19,345.21,24.70,0000 0000 0000 0000 000000
2014-12-24 03:41:48,0.24,2.32,0.00,23.08,28.00,31.09,4.81,26.95,1009.21,2028.00,2653.46,2680.68,2890.64,350.28,345.33,24.73,0000 0000 0000 0000 000000
2014-12-24 03:46:50,0.20,2.33,0.00,23.04,27.98,31.09,4.84,26.78,1009.36,2028.01,2651.59,2679.28,2888.97,350.34,345.52,24.76,0000 0000 0000 0000 000000
2014-12-24 03:51:51,0.21,2.34,0.00,23.01,27.97,31.01,4.83,26.69,1009.37,2028.04,2649.55,2677.85,2887.44,349.96,345.16,24.79,0000 0000 0000 0000 000000
2014-12-24 03:56:52,0.22,2.34,0.00,22.99,27.97,31.01,4.79,26.96,1009.30,2028.05,2647.56,2676.40,2885.80,350.08,345.16,24.82,0000 0000 0000 0000 000000
2014-12-24 04:01:54,0.21,2.35,0.00,22.94,27.95,30.97,4.64,26.73,1009.36,2028.10,2645.55,2674.95,2884.35,349.45,344.59,24.85,0000 0000 0000 0000 000000
2014-12-24 04:06:55,0.27,2.36,0.00,22.90,27.94,30.94,4.67,26.63,1009.58,2028.33,2643.75,2673.58,2882.70,349.15,344.71,24.88,0000 0000 0000 0000 000000
2014-12-24 04:11:56,0.22,2.36,0.00,22.91,27.92,30.92,4.88,26.98,1009.35,2028.58,2641.82,2672.23,2881.15,350.17,345.66,24.90,0000 0000 0000 0000 000000
2014-12-24 04:16:58,0.25,2.37,0.00,22.87,27.91,30.91,4.74,26.82,1009.32,2028.82,2639.85,2670.77,2879.61,349.99,345.43,24.93,0000 0000 0000 0000 000000
2014-12-24 04:21:59,0.19,2.38,0.00,22.83,27.90,30.91,4.71,26.75,1009.32,2028.88,2637.99,2669.45,2878.17,349.30,344.45,24.96,0000 0000 0000 0000 000000
2014-12-24 04:27:00,0.23,2.38,0.00,22.80,27.88,30.84,4.87,26.80,1009.44,2028.96,2636.03,2668.02,2876.61,350.27,345.70,24.99,0000 0000 0000 0000 000000
2014-12-24 04:32:01,0.20,2.39,0.00,22.80,27.86,30.86,4.81,26.67,1009.77,2028.97,2634.19,2666.64,2875.08,350.46,345.82,25.02,0000 0000 0000 0000 000000
2014-12-24 04:37:03,0.19,2.40,0.00,22.78,27.85,30.80,4.87,27.01,1009.75,2028.99,2632.40,2665.40,2873.63,349.92,345.59,25.05,0000 0000 0000 0000 000000
2014-12-24 04:42:04,0.20,2.40,0.00,22.75,27.82,30.77,4.71,26.59,1009.78,2028.98,2630.44,2663.99,2872.10,349.32,344.97,25.08,0000 0000 0000 0000 000000
2014-12-24 04:47:05,0.21,2.41,0.00,22.70,27.81,30.72,4.87,26.91,1009.76,2028.99,2628.65,2662.65,2870.63,350.59,346.37,25.11,0000 0000 0000 0000 000000
2014-12-24 04:52:06,0.19,2.42,0.00,22.68,27.79,30.73,4.81,26.80,1009.60,2028.99,2626.84,2661.38,2869.14,349.87,345.74,25.14,0000 0000 0000 0000 000000
2014-12-24 04:57:08,0.20,2.42,0.00,22.65,27.77,30.69,4.77,26.71,1009.77,2028.99,2625.03,2660.04,2867.63,349.93,345.66,25.17,0000 0000 0000 0000 000000
2014-12-24 05:02:10,0.19,2.43,0.00,22.62,27.75,30.70,4.84,26.88,1009.78,2028.99,2623.20,2658.72,2866.13,350.18,345.97,25.20,0000 0000 0000 0000 000000
2014-12-24 05:07:11,0.20,2.43,0.00,22.63,27.72,30.70,4.72,26.43,1009.78,2029.01,2621.46,2657.39,2864.60,349.49,345.33,25.23,0000 0000 0000 0000 000000
2014-12-24 05:12:12,0.18,2.44,0.00,22.62,27.71,30.68,4.86,26.73,1010.03,2029.05,2619.69,2656.13,2863.23,350.37,346.05,25.26,0000 0000 0000 0000 000000
2014-12-24 05:17:13,0.24,2.44,0.00,22.61,27.68,30.67,4.78,26.59,1010.27,2029.11,2617.88,2654.74,2861.68,350.21,346.18,25.29,0000 0000 0000 0000 000000
2014-12-24 05:22:15,0.18,2.45,0.00,22.62,27.66,30.60,4.70,26.53,1010.27,2029.14,2616.04,2653.40,2860.16,349.36,345.19,25.32,0000 0000 0000 0000 000000
2014-12-24 05:27:16,0.26,2.46,0.00,22.62,27.65,30.63,4.81,26.54,1010.25,2029.52,2614.44,2652.23,2858.80,350.50,346.30,25.34,0000 0000 0000 0000 000000
2014-12-24 05:32:17,0.21,2.46,0.00,22.63,27.62,30.63,4.74,26.50,1009.98,2029.72,2612.70,2650.96,2857.45,349.54,345.48,25.37,0000 0000 0000 0000 000000
2014-12-24 05:37:19,0.21,2.47,0.00,22.60,27.61,30.61,4.79,26.60,1009.84,2029.82,2611.01,2649.71,2855.93,350.09,345.72,25.40,0000 0000 0000 0000 000000
2014-12-24 05:42:20,0.21,2.48,0.00,22.61,27.60,30.60,4.78,26.48,1009.87,2029.90,2609.24,2648.42,2854.50,350.11,345.86,25.43,0000 0000 0000 0000 000000
2014-12-24 05:47:21,0.17,2.48,0.00,22.63,27.57,30.62,4.79,26.53,1009.85,2029.96,2607.66,2647.30,2853.24,349.54,345.14,25.46,0000 0000 0000 0000 000000
2014-12-24 05:52:23,0.17,2.49,0.00,22.63,27.56,30.59,4.70,26.48,1009.80,2029.98,2606.10,2646.09,2851.86,350.22,346.00,25.49,0000 0000 0000 0000 000000
2014-12-24 05:57:24,0.19,2.49,0.00,22.62,27.55,30.62,4.81,26.47,1009.78,2029.99,2604.40,2644.89,2850.53,349.95,345.74,25.52,0000 0000 0000 0000 000000
2014-12-24 06:02:26,0.20,2.50,0.00,22.63,27.54,30.62,4.75,26.38,1009.77,2029.99,2602.57,2643.59,2849.08,349.82,345.25,25.55,0000 0000 0000 0000 000000
2014-12-24 06:07:27,0.20,2.50,0.00,22.63,27.52,30.60,4.76,26.44,1009.78,2029.99,2600.71,2642.37,2847.66,350.15,345.71,25.58,0000 0000 0000 0000 000000
2014-12-24 06:12:28,0.16,2.51,0.00,22.64,27.52,30.60,4.72,26.51,1009.78,2029.99,2599.02,2641.08,2846.25,349.85,345.55,25.61,0000 0000 0000 0000 000000
2014-12-24 06:17:30,0.17,2.52,0.00,22.64,27.50,30.59,4.76,26.48,1009.80,2029.99,2597.47,2639.98,2844.95,349.91,345.80,25.64,0000 0000 0000 0000 000000
2014-12-24 06:22:31,0.20,2.52,0.00,22.65,27.50,30.59,4.79,26.57,1009.83,2030.00,2595.90,2638.76,2843.65,350.06,345.84,25.67,0000 0000 0000 0000 000000
2014-12-24 06:27:32,0.17,2.53,0.00,22.67,27.49,30.60,4.80,26.43,1010.20,2030.00,2594.31,2637.62,2842.36,349.88,345.75,25.70,0000 0000 0000 0000 000000
2014-12-24 06:32:33,0.17,2.53,0.00,22.70,27.47,30.60,4.76,26.53,1010.27,2030.01,2592.75,2636.55,2841.13,349.41,345.29,25.73,0000 0000 0000 0000 000000
2014-12-24 06:37:35,0.18,2.54,0.00,22.71,27.47,30.60,4.78,26.62,1010.27,2030.01,2591.15,2635.36,2839.83,350.05,345.85,25.75,0000 0000 0000 0000 000000
2014-12-24 06:42:36,0.17,2.54,0.00,22.72,27.47,30.59,4.79,26.63,1010.27,2030.01,2589.59,2634.19,2838.52,350.10,346.06,25.78,0000 0000 0000 0000 000000
2014-12-24 06:47:37,0.15,2.55,0.00,22.71,27.46,30.58,4.84,26.68,1009.90,2030.01,2588.19,2633.14,2837.34,349.70,345.54,25.81,0000 0000 0000 0000 000000
2014-12-24 06:52:38,0.18,2.55,0.00,22.70,27.45,30.59,4.83,26.68,1009.79,2030.03,2586.61,2631.99,2835.96,350.33,345.93,25.84,0000 0000 0000 0000 000000
2014-12-24 06:57:40,0.19,2.56,0.00,22.69,27.45,30.59,4.78,26.63,1009.77,2030.05,2585.03,2630.84,2834.73,349.96,345.48,25.87,0000 0000 0000 0000 000000
2014-12-24 07:02:41,0.18,2.56,0.00,22.66,27.45,30.57,4.79,26.84,1009.76,2030.05,2583.55,2629.70,2833.48,349.62,345.48,25.90,0000 0000 0000 0000 000000
2014-12-24 07:07:42,0.17,2.57,0.00,22.65,27.45,30.58,4.78,26.82,1009.80,2030.03,2581.92,2628.48,2832.13,350.40,346.30,25.93,0000 0000 0000 0000 000000
2014-12-24 07:12:44,0.17,2.57,0.00,22.64,27.45,30.57,4.76,26.41,1010.15,2030.02,2580.36,2627.33,2830.72,349.87,345.76,25.96,0000 0000 0000 0000 000000
2014-12-24 07:17:45,0.16,2.58,0.00,22.63,27.44,30.59,4.74,26.41,1010.31,2030.04,2578.79,2626.22,2829.56,349.71,345.60,25.99,0000 0000 0000 0000 000000
2014-12-24 07:22:46,0.16,2.58,0.00,22.62,27.42,30.58,4.78,26.45,1010.30,2030.02,2577.29,2625.05,2828.30,350.15,346.06,26.02,0000 0000 0000 0000 000000
2014-12-24 07:27:47,0.19,2.59,0.00,22.62,27.42,30.56,4.73,26.73,1010.21,2030.04,2575.72,2623.86,2826.95,350.07,346.16,26.05,0000 0000 0000 0000 000000
2014-12-24 07:32:49,0.15,2.59,0.00,22.59,27.42,30.53,4.78,26.59,1010.27,2030.03,2574.18,2622.85,2825.69,350.12,346.11,26.08,0000 0000 0000 0000 000000
2014-12-24 07:37:50,0.19,2.60,0.00,22.59,27.42,30.54,4.77,26.50,1010.32,2030.03,2572.57,2621.76,2824.40,349.83,345.93,26.11,0000 0000 0000 0000 000000
2014-12-24 07:42:51,0.18,2.60,0.00,22.58,27.41,30.54,4.79,26.54,1010.29,2030.09,2570.94,2620.63,2823.16,350.29,346.27,26.14,0000 0000 0000 0000 000000
2014-12-24 07:47:52,0.18,2.61,0.00,22.57,27.40,30.53,4.76,26.63,1010.27,2030.17,2569.49,2619.55,2821.89,349.53,345.64,26.16,0000 0000 0000 0000 000000
2014-12-24 07:52:54,0.20,2.61,0.00,22.56,27.40,30.52,4.78,26.75,1010.27,2030.21,2567.80,2618.34,2820.57,349.97,346.01,26.19,0000 0000 0000 0000 000000
2014-12-24 07:57:55,0.18,2.62,0.00,22.55,27.40,30.51,4.76,26.68,1010.27,2030.24,2566.03,2617.00,2819.18,349.70,345.89,26.22,0000 0000 0000 0000 000000
2014-12-24 08:02:56,0.20,2.63,0.00,22.56,27.39,30.51,4.69,26.74,1009.97,2030.23,2564.40,2615.74,2817.70,349.98,345.97,26.25,0000 0000 0000 0000 000000
2014-12-24 08:07:58,0.23,2.63,0.00,22.49,27.37,30.48,4.85,27.07,1009.81,2030.38,2562.57,2614.47,2816.40,350.60,346.55,26.28,0000 0000 0000 0000 000000
2014-12-24 08:12:59,0.16,2.64,0.00,22.48,27.37,30.48,4.76,26.78,1009.97,2030.37,2560.98,2613.29,2815.12,349.68,345.77,26.31,0000 0000 0000 0000 000000
2014-12-24 08:18:01,0.18,2.64,0.00,22.44,27.37,30.44,4.76,26.82,1009.96,2030.53,2559.58,2612.16,2813.79,350.23,346.07,26.34,0000 0000 0000 0000 000000
2014-12-24 08:23:02,0.22,2.65,0.00,22.43,27.35,30.46,4.71,26.78,1009.83,2030.60,2557.98,2610.86,2812.46,349.30,345.47,26.37,0000 0000 0000 0000 000000
2014-12-24 08:28:03,0.22,2.66,0.00,22.38,27.35,30.43,4.65,26.83,1009.86,2030.80,2556.26,2609.61,2811.10,349.22,345.33,26.40,0000 0000 0000 0000 000000
2014-12-24 08:33:05,0.21,2.66,0.00,22.36,27.33,30.38,4.84,26.75,1010.15,2030.94,2554.64,2608.45,2809.76,349.95,346.23,26.43,0000 0000 0000 0000 000000
2014-12-24 08:38:06,0.16,2.67,0.00,22.32,27.32,30.37,4.82,26.81,1010.10,2030.93,2553.11,2607.33,2808.46,350.20,346.67,26.46,0000 0000 0000 0000 000000
2014-12-24 08:43:07,0.17,2.68,0.00,22.32,27.30,30.34,4.87,26.56,1010.22,2030.95,2551.61,2606.09,2807.11,350.49,346.31,26.49,0000 0000 0000 0000 000000
2014-12-24 08:48:08,0.18,2.68,0.00,22.30,27.30,30.31,4.74,26.54,1010.27,2030.96,2549.98,2604.94,2805.79,350.22,346.52,26.52,0000 0000 0000 0000 000000
2014-12-24 08:53:10,0.20,2.68,0.00,22.29,27.27,30.28,4.81,26.38,1010.52,2030.96,2548.35,2603.70,2804.47,350.16,346.66,26.55,0000 0000 0000 0000 000000
2014-12-24 08:58:11,0.19,2.69,0.00,22.30,27.26,30.30,4.78,26.34,1010.67,2030.97,2546.60,2602.50,2803.17,350.32,346.74,26.57,0000 0000 0000 0000 000000
2014-12-24 09:03:12,0.19,2.70,0.00,22.32,27.25,30.29,4.75,26.31,1010.58,2030.99,2544.92,2601.30,2801.76,349.64,346.23,26.60,0000 0000 0000 0000 000000
2014-12-24 09:08:13,0.17,2.70,0.00,22.33,27.24,30.30,4.72,26.29,1010.38,2030.99,2543.35,2600.11,2800.44,349.28,345.65,26.63,0000 0000 0000 0000 000000
2014-12-24 09:13:15,0.21,2.71,0.00,22.34,27.22,30.31,4.89,26.59,1010.37,2030.99,2541.55,2598.81,2799.03,350.37,346.67,26.66,0000 0000 0000 0000 000000
2014-12-24 09:18:16,0.20,2.71,0.00,22.34,27.21,30.32,4.86,26.68,1010.28,2030.99,2539.94,2597.60,2797.63,350.49,346.73,26.69,0000 0000 0000 0000 000000
2014-12-24 09:23:17,0.17,2.72,0.00,22.37,27.20,30.29,4.83,26.49,1010.27,2031.01,2538.35,2596.49,2796.34,350.05,346.46,26.72,0000 0000 0000 0000 000000
2014-12-24 09:28:18,0.19,2.73,0.00,22.37,27.20,30.29,4.86,26.69,1010.27,2031.01,2536.61,2595.22,2794.91,350.50,346.57,26.75,0000 0000 0000 0000 000000
2014-12-24 09:33:20,0.22,2.73,0.00,22.39,27.18,30.31,4.72,26.68,1010.27,2031.03,2534.79,2593.86,2793.45,349.96,346.13,26.78,0000 0000 0000 0000 000000
2014-12-24 09:38:21,0.22,2.74,0.00,22.37,27.17,30.29,4.81,26.86,1010.27,2031.02,2532.87,2592.50,2791.87,350.30,346.46,26.81,0000 0000 0000 0000 000000
2014-12-24 09:43:22,0.18,2.74,0.00,22.35,27.17,30.29,4.79,26.94,1010.29,2031.02,2531.16,2591.15,2790.49,349.83,346.12,26.84,0000 0000 0000 0000 000000
2014-12-24 09:48:23,0.22,2.75,0.00,22.34,27.16,30.31,4.77,26.75,1010.29,2031.05,2529.43,2589.81,2788.97,349.98,346.30,26.87,0000 0000 0000 0000 000000
2014-12-24 09:53:24,0.21,2.76,0.00,22.34,27.15,30.31,4.86,26.88,1010.29,2031.07,2527.62,2588.47,2787.50,350.73,347.02,26.90,0000 0000 0000 0000 000000
2014-12-24 09:58:26,0.21,2.76,0.00,22.34,27.15,30.28,4.88,26.88,1010.28,2031.15,2525.71,2587.14,2785.99,350.14,346.31,26.93,0000 0000 0000 0000 000000
2014-12-24 10:03:27,0.24,2.77,0.00,22.33,27.15,30.30,4.73,26.88,1010.25,2031.24,2523.96,2585.75,2784.49,349.97,346.13,26.96,0000 0000 0000 0000 000000
2014-12-24 10:08:28,0.22,2.78,0.00,22.33,27.14,30.27,4.77,26.64,1010.15,2031.23,2522.04,2584.41,2782.85,350.17,346.36,26.99,0000 0000 0000 0000 000000
2014-12-24 10:13:30,0.20,2.78,0.00,22.35,27.12,30.27,4.83,26.65,1010.12,2031.24,2520.29,2583.01,2781.39,350.28,346.63,27.01,0000 0000 0000 0000 000000
2014-12-24 10:18:32,0.22,2.79,0.00,22.30,27.12,30.22,4.75,26.63,1009.99,2031.18,2518.45,2581.66,2779.81,349.87,346.43,27.04,0000 0000 0000 0000 000000
2014-12-24 10:23:33,0.21,2.80,0.00,22.31,27.12,30.25,4.81,26.93,1009.88,2031.22,2516.56,2580.29,2778.32,350.06,346.26,27.07,0000 0000 0000 0000 000000
2014-12-24 10:28:34,0.30,2.80,0.00,22.28,27.12,30.25,4.89,26.98,1009.91,2031.45,2514.63,2578.83,2776.75,349.91,346.29,27.10,0000 0000 0000 0000 000000
2014-12-24 10:33:35,0.23,2.81,0.00,22.27,27.11,30.22,4.92,27.00,1009.85,2031.65,2512.81,2577.49,2775.28,350.33,346.72,27.13,0000 0000 0000 0000 000000
2014-12-24 10:38:36,0.21,2.82,0.00,22.25,27.10,30.23,4.79,26.88,1009.80,2031.78,2511.03,2576.16,2773.74,349.89,346.13,27.16,0000 0000 0000 0000 000000
2014-12-24 10:43:38,0.22,2.82,0.00,22.24,27.10,30.24,4.75,26.77,1010.01,2031.83,2509.27,2574.81,2772.29,350.31,346.67,27.19,0000 0000 0000 0000 000000
2014-12-24 10:48:39,0.21,2.83,0.00,22.23,27.10,30.22,4.76,26.75,1010.26,2031.90,2507.57,2573.51,2770.81,350.00,346.39,27.22,0000 0000 0000 0000 000000
2014-12-24 10:53:40,0.20,2.84,0.00,22.22,27.08,30.20,4.79,26.92,1010.27,2031.91,2505.87,2572.22,2769.40,349.90,346.45,27.25,0000 0000 0000 0000 000000
2014-12-24 10:58:42,0.18,2.84,0.00,22.20,27.07,30.20,4.71,26.57,1010.27,2031.85,2504.17,2570.92,2767.95,349.65,345.99,27.28,0000 0000 0000 0000 000000
2014-12-24 11:03:43,0.22,2.85,0.00,22.21,27.07,30.21,4.71,26.60,1010.27,2031.87,2502.50,2569.66,2766.54,349.79,346.24,27.31,0000 0000 0000 0000 000000
2014-12-24 11:08:45,0.20,2.85,0.00,22.21,27.06,30.19,4.65,26.69,1009.95,2031.96,2500.70,2568.43,2765.19,348.93,345.28,27.34,0000 0000 0000 0000 000000
2014-12-24 11:13:46,0.22,2.86,0.00,22.21,27.05,30.18,4.74,26.87,1009.83,2031.95,2498.83,2567.03,2763.70,349.88,346.19,27.37,0000 0000 0000 0000 000000
2014-12-24 11:18:47,0.20,2.87,0.00,22.19,27.05,30.18,4.83,26.77,1009.85,2031.97,2497.06,2565.72,2762.29,350.25,346.42,27.40,0000 0000 0000 0000 000000
2014-12-24 11:23:48,0.22,2.87,0.00,22.16,27.04,30.15,4.68,26.65,1009.79,2031.98,2495.35,2564.41,2760.76,349.36,345.70,27.42,0000 0000 0000 0000 000000
2014-12-24 11:28:50,0.20,2.88,0.00,22.14,27.02,30.14,4.80,26.68,1009.79,2031.98,2493.58,2563.02,2759.30,350.11,346.43,27.45,0000 0000 0000 0000 000000
2014-12-24 11:33:51,0.25,2.89,0.00,22.14,27.02,30.12,4.85,26.80,1009.78,2031.99,2491.70,2561.59,2757.65,350.30,346.69,27.48,0000 0000 0000 0000 000000
2014-12-24 11:38:53,0.20,2.89,0.00,22.13,27.01,30.12,4.82,27.02,1009.81,2031.98,2489.74,2560.11,2756.14,350.26,346.64,27.51,0000 0000 0000 0000 000000
2014-12-24 11:43:54,0.22,2.90,0.00,22.11,27.00,30.13,4.77,26.70,1009.80,2031.98,2487.98,2558.83,2754.56,349.92,346.19,27.54,0000 0000 0000 0000 000000
2014-12-24 11:48:55,0.23,2.91,0.00,22.12,27.00,30.10,4.79,26.77,1009.78,2031.99,2486.06,2557.49,2752.92,350.04,346.47,27.57,0000 0000 0000 0000 000000
2014-12-24 11:53:56,0.19,2.91,0.00,22.11,26.99,30.09,4.81,26.81,1009.77,2031.99,2484.22,2556.18,2751.53,350.26,346.66,27.60,0000 0000 0000 0000 000000
2014-12-24 11:58:58,0.19,2.92,0.00,22.11,26.97,30.09,4.79,26.56,1009.76,2031.99,2482.57,2554.92,2750.26,349.93,346.30,27.63,0000 0000 0000 0000 000000
2014-12-24 12:03:59,0.22,2.92,0.00,22.10,26.97,30.10,4.75,26.73,1009.76,2031.99,2480.85,2553.61,2748.78,349.73,346.13,27.66,0000 0000 0000 0000 000000
2014-12-24 12:09:01,0.18,2.93,0.00,22.08,26.96,30.10,4.76,26.67,1009.56,2031.99,2479.23,2552.34,2747.47,349.54,345.91,27.69,0000 0000 0000 0000 000000
2014-12-24 12:14:02,0.21,2.94,0.00,22.08,26.95,30.07,4.78,26.86,1009.37,2031.99,2477.40,2551.10,2745.99,349.64,345.77,27.72,0000 0000 0000 0000 000000
2014-12-24 12:19:03,0.22,2.94,0.00,22.09,26.95,30.03,4.83,26.77,1009.39,2031.99,2475.63,2549.68,2744.54,350.28,346.52,27.75,0000 0000 0000 0000 000000
2014-12-24 12:24:05,0.21,2.95,0.00,22.08,26.93,30.05,4.83,26.82,1009.33,2031.99,2473.79,2548.32,2743.00,350.19,346.55,27.78,0000 0000 0000 0000 000000
2014-12-24 12:29:06,0.21,2.96,0.00,22.06,26.92,30.05,4.76,26.80,1009.29,2031.99,2472.05,2546.95,2741.52,349.87,346.16,27.81,0000 0000 0000 0000 000000
2014-12-24 12:34:07,0.22,2.96,0.00,22.02,26.92,30.05,4.76,26.79,1009.30,2031.99,2470.21,2545.64,2739.99,349.81,346.04,27.83,0000 0000 0000 0000 000000
2014-12-24 12:39:09,0.21,2.97,0.00,22.02,26.90,30.03,4.83,26.92,1009.29,2031.99,2468.36,2544.35,2738.56,350.05,346.29,27.86,0000 0000 0000 0000 000000
2014-12-24 12:44:10,0.21,2.98,0.00,22.02,26.90,30.01,4.89,27.09,1009.29,2032.00,2466.53,2542.98,2737.16,350.49,346.87,27.89,0000 0000 0000 0000 000000
2014-12-24 12:49:11,0.23,2.98,0.00,22.01,26.90,30.02,4.81,26.94,1009.27,2032.01,2464.68,2541.70,2735.73,350.03,346.21,27.92,0000 0000 0000 0000 000000
2014-12-24 12:54:12,0.21,2.99,0.00,22.00,26.88,29.98,4.83,26.97,1009.29,2032.01,2462.87,2540.34,2734.24,350.28,346.54,27.95,0000 0000 0000 0000 000000
2014-12-24 12:59:13,0.23,3.00,0.00,22.01,26.87,29.95,4.71,26.90,1009.29,2032.02,2461.05,2538.95,2732.73,349.71,346.23,27.98,0000 0000 0000 0000 000000